Theta_e
314 319 322 321 320 321 322 324 320 321 321 311 313 315 319 325 326 326 327 327 330 332 332 330 329 331 332 342 351 351 351 355 357 352 350 356 352 351 352 348 348 345 344 338 335 339 338 329 323 324 324 324 325 328 332 332 331 330 328 326 327 329 336 340 341 342 343 344 343 344 344 344 344 344 344 344 344 343 343 343 343 343 343 342 342 342 341 340 339 340 340 338 337 333 332 332 332
315 319 320 319 321 321 322 324 317 316 316 309 314 318 320 326 327 328 332 332 332 333 333 331 331 332 333 343 346 350 354 351 353 355 353 352 350 353 350 348 347 345 343 339 340 341 339 333 325 325 324 322 323 325 326 325 325 325 326 328 332 335 340 341 342 343 343 344 344 344 344 344 344 344 343 344 344 343 343 343 344 343 343 343 342 341 341 341 339 339 339 337 335 333 332 331 330
314 316 319 321 322 321 322 323 317 311 312 309 314 322 324 325 326 330 335 335 334 333 334 332 332 335 334 343 343 349 354 349 349 349 349 351 352 352 350 349 346 344 344 343 344 341 338 334 327 325 323 322 321 321 321 323 325 328 330 334 337 340 341 342 343 343 343 344 344 344 344 344 344 343 343 343 343 343 343 343 343 343 343 342 342 341 341 341 340 339 336 332 332 332 332 331 330
312 314 321 321 319 321 321 320 319 312 311 310 312 322 326 326 326 329 333 336 336 332 334 334 333 337 339 343 345 347 350 348 348 348 350 352 352 351 350 348 345 344 344 344 344 339 336 333 327 324 323 320 318 319 321 325 329 332 335 338 340 342 342 343 343 343 343 344 344 344 344 344 343 343 343 343 343 343 343 343 343 343 343 342 342 342 342 341 339 337 332 329 330 331 331 331 331
314 316 320 321 319 320 321 320 320 315 313 314 314 323 325 325 327 329 333 335 333 333 335 333 333 340 343 345 345 347 349 348 347 349 351 352 351 351 349 347 346 345 345 344 342 338 336 333 327 326 326 324 321 320 322 326 330 334 338 341 342 343 343 344 343 344 343 344 344 343 344 343 343 342 341 341 341 342 342 342 342 341 342 341 341 341 340 338 334 331 329 328 330 330 330 330 331
319 321 321 320 320 320 319 316 315 314 317 321 318 323 326 325 326 329 331 329 331 335 336 334 336 344 346 346 345 345 348 347 348 351 352 352 352 350 348 347 345 345 345 344 341 339 339 336 333 333 335 335 333 330 331 332 334 337 341 342 343 343 343 344 344 343 343 344 344 343 343 342 342 339 336 335 335 337 339 340 341 341 341 340 340 339 339 335 329 328 328 328 330 330 330 329 330
321 319 321 320 321 320 317 313 312 314 320 324 322 324 325 325 325 327 327 326 330 334 334 337 337 343 345 345 346 346 347 348 349 351 352 351 350 349 348 346 346 345 345 343 341 341 340 338 338 340 341 342 342 341 341 341 342 342 343 343 343 343 343 344 344 343 344 343 343 342 341 340 338 333 329 326 326 326 328 333 335 336 338 339 339 339 339 335 328 328 327 327 330 330 329 330 330
319 318 320 320 321 321 317 314 316 318 320 323 324 324 325 325 326 325 325 325 328 327 330 335 332 341 345 347 349 349 348 349 351 352 352 351 350 348 347 345 345 345 345 343 341 340 339 339 342 343 343 343 343 344 344 344 344 343 343 343 343 344 344 344 343 343 343 342 341 340 339 337 335 331 326 323 322 321 320 322 325 327 332 334 335 336 336 332 328 328 327 327 331 331 329 331 330
319 318 319 319 319 317 316 315 317 320 322 322 323 325 326 325 326 324 324 324 325 324 325 331 333 344 348 352 352 350 349 351 351 351 351 350 348 346 346 345 345 345 344 342 339 339 339 340 342 341 343 343 343 344 344 344 344 343 343 343 343 344 344 343 343 342 341 339 338 336 336 334 333 330 326 324 323 321 317 316 318 322 327 329 329 330 331 330 329 329 327 327 331 332 330 331 331
319 318 319 318 318 313 311 314 317 321 323 323 323 323 325 324 324 324 323 324 325 324 324 332 338 343 348 353 353 350 349 350 350 351 350 349 347 346 346 345 346 345 343 341 339 339 339 339 341 341 342 343 343 344 344 344 344 343 343 343 343 343 343 342 342 341 339 337 336 336 335 334 332 329 327 325 325 323 317 313 314 316 320 323 327 327 326 327 324 325 326 327 331 333 332 331 331
318 318 319 317 314 310 309 313 316 320 322 323 323 324 325 324 323 322 322 323 322 323 324 330 338 343 351 355 353 351 349 348 349 349 349 347 345 345 345 345 346 345 343 341 340 340 339 338 339 341 342 342 343 344 343 343 344 343 343 344 343 343 343 342 341 339 338 337 337 336 334 333 332 330 326 325 328 328 322 316 314 312 313 317 321 323 323 322 317 319 324 327 331 333 333 332 332
318 318 319 315 312 313 313 314 315 321 322 323 324 324 326 325 322 321 322 321 321 323 323 330 339 345 355 357 354 351 350 348 348 347 347 346 346 345 345 346 346 344 343 341 341 341 339 338 338 339 341 342 342 343 343 343 344 343 343 343 343 343 342 341 340 339 339 338 338 336 334 333 331 330 326 325 330 331 328 326 319 312 312 313 316 317 318 318 314 315 323 328 332 332 333 333 332
317 318 319 316 316 316 315 315 318 321 321 322 324 324 326 324 322 321 322 320 321 321 321 332 338 346 353 355 354 351 350 348 347 348 347 347 346 346 345 347 346 345 343 342 342 341 340 340 338 339 340 341 342 342 343 343 343 343 343 342 343 342 341 340 340 339 339 338 337 335 333 332 330 329 325 324 330 332 332 330 324 315 312 312 313 314 314 314 313 317 324 328 331 332 332 333 332
317 318 318 316 318 318 317 316 317 318 318 323 323 324 324 322 322 321 322 321 321 321 324 338 340 349 355 356 355 351 351 349 349 348 348 348 347 347 346 347 346 345 344 343 342 341 341 340 340 339 339 341 342 342 342 343 342 343 343 342 342 341 341 340 339 339 338 337 336 334 334 333 331 329 325 324 328 331 332 329 326 320 313 312 313 313 312 312 313 319 325 328 331 332 332 333 332
317 317 319 316 316 316 317 316 318 316 316 324 323 324 323 322 322 321 324 321 323 322 328 343 342 350 354 356 356 352 351 350 349 349 348 348 347 348 347 347 346 345 344 343 343 342 342 341 340 339 339 340 341 342 342 342 342 343 342 342 341 340 340 339 338 338 336 336 335 333 333 332 332 330 326 325 327 329 331 330 327 321 314 312 314 313 312 312 316 321 326 329 331 331 332 332 332
317 317 317 315 314 313 316 317 319 316 318 324 323 324 323 323 324 322 326 323 326 321 325 342 340 346 350 351 353 352 352 351 350 349 349 348 348 347 347 347 346 346 345 344 344 343 343 342 340 340 340 339 339 340 341 342 341 342 342 341 340 339 339 338 337 335 335 333 332 334 332 333 335 334 332 329 326 327 329 330 328 325 319 314 313 313 313 314 318 322 326 328 330 331 332 332 332
317 317 316 313 312 312 316 318 319 317 320 323 321 323 322 322 324 325 328 326 326 322 329 340 339 343 343 347 352 353 352 350 350 349 348 348 348 347 347 346 346 346 345 345 345 344 344 343 342 342 340 339 338 339 340 341 340 341 341 340 340 339 337 336 335 333 331 329 330 335 336 338 339 338 337 332 328 329 328 328 328 328 326 322 316 314 314 315 319 323 325 327 329 329 331 332 332
317 317 315 311 314 315 317 320 320 320 321 323 322 322 323 322 323 327 329 328 325 325 340 347 348 345 341 348 353 352 351 350 350 349 348 348 347 347 346 347 346 346 345 345 346 345 344 343 343 342 341 339 338 337 338 340 340 340 340 339 338 337 335 334 335 334 332 329 332 336 337 339 340 337 337 336 336 332 326 327 328 327 327 327 324 321 318 316 317 321 324 326 327 328 329 333 335
317 317 314 313 317 318 319 321 320 321 321 321 321 322 322 321 320 325 329 330 325 325 342 352 355 352 348 353 353 352 351 351 351 349 349 348 347 348 347 347 346 346 345 345 345 345 344 343 343 342 341 339 338 338 337 338 339 340 340 338 338 336 334 337 339 339 337 335 336 338 337 338 339 337 337 339 339 330 325 327 326 327 327 326 328 331 328 324 321 320 321 322 324 325 327 333 338
317 317 315 316 317 319 319 320 321 321 321 320 322 321 321 322 321 323 326 330 327 326 342 351 356 355 352 351 351 352 351 351 350 350 349 347 347 347 347 347 345 345 345 345 344 343 343 342 342 342 341 340 338 337 335 337 338 338 339 340 339 339 338 341 341 339 338 338 338 338 339 340 339 338 337 337 335 332 334 333 330 332 333 330 330 334 335 333 332 329 328 325 322 323 327 332 336
318 317 316 318 318 318 318 319 320 321 321 320 321 321 321 322 321 321 322 329 329 325 341 348 354 354 351 350 350 351 351 352 351 350 349 348 347 346 346 346 344 345 344 343 343 342 342 341 341 341 340 339 337 336 335 336 336 336 338 340 340 340 340 340 339 337 337 338 339 339 340 340 339 338 337 336 336 337 339 338 338 338 338 336 335 336 338 337 336 335 336 333 329 328 330 332 333
318 317 316 318 318 318 319 320 320 320 321 319 320 320 321 320 320 323 320 327 330 325 338 346 351 352 350 350 350 351 350 351 352 350 349 348 347 346 345 344 344 344 343 343 341 341 341 341 340 339 337 338 337 336 336 335 335 336 336 338 339 338 338 338 337 337 337 339 340 340 340 340 339 339 339 339 339 339 339 338 339 339 339 339 338 338 339 338 338 337 337 336 334 334 333 332 331
318 317 317 317 317 318 319 320 320 321 319 319 320 319 319 320 319 323 324 326 330 326 336 346 349 350 350 350 349 349 350 350 352 350 348 348 347 346 345 344 343 343 342 341 340 339 340 339 338 337 336 337 336 335 335 335 336 337 337 338 339 337 338 337 337 337 339 341 341 340 341 340 339 339 339 340 340 339 338 338 338 338 338 338 339 340 339 338 338 337 336 336 335 334 333 332 332
317 317 317 318 318 318 318 320 321 319 319 319 319 319 319 319 319 326 328 327 330 336 341 345 349 350 348 349 348 348 350 350 351 348 346 347 346 345 345 344 343 341 341 339 338 338 337 337 336 336 336 336 335 334 333 335 337 339 338 339 338 338 338 338 338 339 340 341 341 341 341 340 339 339 340 339 339 339 339 338 339 339 337 337 339 341 339 338 338 337 336 336 335 334 334 333 334
318 318 318 318 318 319 318 320 320 319 319 319 318 320 318 319 321 323 328 331 334 341 344 345 346 347 347 347 348 349 350 349 349 346 343 345 345 344 343 342 341 339 338 337 337 337 336 335 335 335 336 336 336 334 333 336 338 338 339 339 338 337 338 338 338 339 340 341 342 341 340 340 340 340 340 339 339 339 340 340 340 339 338 337 338 339 338 338 338 338 337 337 336 336 335 334 334
317 318 317 318 319 319 320 319 320 319 319 318 318 319 317 321 319 319 339 346 342 342 342 345 346 345 347 347 348 347 348 347 344 343 341 342 344 342 341 340 339 337 336 336 335 336 335 335 335 334 336 336 335 334 334 337 338 338 339 339 338 338 338 338 339 340 341 342 342 341 340 340 340 341 340 339 338 339 340 340 340 340 339 339 339 339 339 339 340 339 338 339 339 338 337 336 336
319 318 318 319 318 319 320 319 320 319 318 319 318 317 318 321 316 325 346 345 345 348 344 342 344 345 346 345 343 341 341 340 337 339 340 340 342 340 340 338 336 335 336 336 336 335 335 334 335 335 336 336 336 336 336 337 338 339 339 339 339 340 339 339 340 342 342 342 342 341 341 341 340 341 341 340 339 339 340 340 340 340 340 340 339 340 340 340 340 339 339 339 339 339 337 337 337
318 318 318 318 318 319 319 319 321 319 319 319 318 319 319 318 322 339 345 343 348 353 348 345 344 345 343 339 337 338 339 338 336 338 338 337 338 339 338 336 335 336 335 336 336 336 336 336 336 337 337 337 337 338 338 338 338 339 338 340 341 340 339 340 341 342 342 342 341 340 341 341 340 341 340 340 340 340 340 340 341 340 340 340 340 340 340 340 339 339 339 338 338 338 336 337 337
317 318 318 317 318 319 318 320 319 319 319 318 319 317 316 331 342 345 344 341 344 346 345 344 343 343 340 337 337 338 338 337 336 336 336 336 336 338 337 335 335 336 337 337 338 337 337 337 336 337 337 337 337 338 338 338 338 339 339 339 341 341 341 341 342 342 342 341 341 340 340 340 340 340 340 340 340 340 341 341 341 341 341 340 340 340 340 340 339 339 339 338 337 338 337 336 336
317 317 318 317 317 317 318 320 318 320 318 318 319 310 320 346 347 345 344 343 344 341 339 340 341 340 338 336 336 336 336 336 336 335 335 336 336 338 337 336 337 337 338 339 338 338 338 337 337 337 337 337 338 338 338 339 338 338 339 339 339 340 340 341 341 341 341 340 340 340 340 340 340 340 341 341 340 341 341 341 340 340 341 340 340 340 340 340 339 339 339 339 338 338 338 337 336
316 316 317 316 313 312 317 319 317 320 316 320 319 308 327 351 346 345 345 343 344 341 339 338 339 339 336 336 335 335 336 335 337 336 336 337 337 339 338 338 339 339 339 339 339 339 338 338 339 338 339 339 340 339 338 338 338 338 338 339 339 339 339 339 340 340 340 340 340 341 340 340 340 340 341 340 340 340 339 340 340 340 340 341 340 340 340 340 340 340 339 339 338 338 338 338 337
317 313 313 314 312 312 318 318 317 320 316 321 317 310 333 351 345 347 345 343 344 341 339 338 339 340 337 337 336 336 337 336 337 337 337 339 339 339 338 338 339 339 340 339 339 338 339 339 339 338 339 339 339 339 339 338 338 337 338 339 339 339 338 337 339 339 339 339 340 340 340 340 341 340 340 340 340 340 339 339 340 341 340 340 340 338 339 339 339 339 338 338 338 337 338 337 337
316 314 310 311 312 311 315 318 318 320 316 320 315 318 341 349 345 346 345 343 343 342 340 339 339 340 338 336 336 336 336 336 337 337 337 339 339 338 338 339 339 340 340 340 338 337 339 339 339 338 339 339 339 339 340 339 339 338 338 339 338 337 336 336 339 339 339 340 339 340 340 340 340 340 340 340 340 340 340 340 340 340 339 339 339 338 339 339 338 339 338 338 339 338 338 338 337
312 314 311 311 313 311 311 315 318 319 316 319 315 322 343 346 344 345 346 346 343 343 342 340 340 338 337 337 337 338 337 337 337 337 337 338 339 338 338 339 339 339 339 339 338 338 339 338 338 339 338 338 339 339 339 340 339 338 338 338 337 337 336 336 338 339 339 339 339 340 339 339 339 339 339 339 339 338 339 338 338 338 337 338 338 338 338 338 338 338 338 338 338 338 338 338 338
310 312 311 311 313 312 311 313 317 319 317 319 315 323 341 344 344 345 346 346 344 343 342 342 340 338 338 338 339 339 338 338 338 337 337 339 339 338 337 338 338 339 338 338 338 338 338 338 338 338 337 338 338 339 338 339 338 336 336 336 336 337 336 336 338 338 338 338 338 338 338 338 338 338 338 337 337 337 337 338 337 337 337 337 337 337 337 337 336 337 337 337 336 336 337 337 338
313 313 312 310 310 311 314 315 318 319 317 317 315 330 343 342 343 345 345 345 343 343 344 343 341 341 340 340 339 339 339 337 337 337 337 338 338 337 336 338 338 338 338 337 337 336 337 337 338 337 337 337 337 338 337 337 336 335 335 335 335 336 334 335 338 338 338 337 338 337 337 337 337 336 337 336 336 336 337 336 336 336 336 336 336 335 335 335 335 335 335 335 335 335 336 336 336
316 315 313 312 310 311 315 317 318 318 317 316 316 332 343 342 343 346 343 343 343 343 344 343 342 342 341 340 339 338 338 337 336 337 337 338 337 337 336 337 338 338 337 337 336 336 337 337 338 337 336 336 336 336 336 335 334 334 335 334 334 334 334 336 338 337 336 336 336 336 335 335 335 335 335 335 334 334 334 334 333 333 333 333 333 332 332 333 333 332 332 333 333 334 334 335 334
316 314 312 311 311 311 316 318 318 317 318 315 317 336 342 344 344 345 343 343 343 343 343 343 342 341 341 340 338 337 337 336 336 337 337 338 337 337 337 337 337 337 337 336 336 336 337 337 337 336 336 336 335 335 336 335 335 334 335 334 332 333 335 336 336 335 335 334 334 334 333 333 333 332 332 332 331 331 331 331 331 331 330 330 331 331 330 330 330 331 330 330 331 332 332 333 332
316 315 312 310 311 313 315 318 319 319 318 314 323 341 342 344 344 344 344 343 343 342 343 344 343 341 342 340 338 338 337 336 337 336 337 337 337 338 337 337 337 337 336 336 337 337 337 337 336 336 336 335 336 335 336 336 335 335 334 334 333 334 335 335 335 334 333 332 331 331 330 330 330 329 329 329 329 328 328 329 329 329 328 328 329 329 329 328 328 329 329 328 329 330 330 330 329
315 314 310 309 313 312 310 314 319 320 317 321 334 343 343 344 345 344 342 341 341 339 339 340 339 340 342 340 338 338 338 338 337 336 336 336 337 338 338 337 337 336 336 336 336 336 336 336 335 335 335 335 336 336 337 336 335 335 335 335 334 334 335 334 334 333 331 330 329 328 327 326 326 326 326 326 326 325 325 326 326 326 326 325 326 326 327 326 326 326 326 326 327 327 328 328 327
314 315 312 311 314 314 311 315 321 318 318 331 339 340 342 343 344 344 341 340 340 338 339 338 337 338 340 340 338 338 339 338 338 336 336 336 337 337 338 337 337 337 337 336 335 335 335 335 335 335 334 335 336 336 336 335 335 335 334 334 335 335 335 334 333 331 330 328 326 325 324 324 324 323 323 323 323 323 323 323 324 324 323 323 323 324 324 323 324 324 323 323 324 325 325 325 325
312 314 315 315 316 316 315 317 319 314 313 328 335 332 338 341 341 343 342 341 342 340 340 339 336 336 337 340 339 338 339 338 337 336 335 336 337 337 337 337 337 337 337 336 335 335 335 334 335 334 334 334 334 334 334 334 334 334 333 333 335 335 334 332 331 329 328 327 325 323 322 322 322 321 321 321 321 321 321 321 321 322 321 321 321 322 322 321 321 322 322 322 323 323 323 324 324
309 313 317 318 319 316 315 316 316 312 312 323 329 328 334 339 338 341 341 341 343 340 340 339 336 336 336 338 340 337 338 338 337 336 336 336 336 336 336 336 336 336 335 335 334 333 333 333 333 332 332 332 332 333 333 333 333 333 333 334 335 333 332 330 329 328 327 326 325 323 321 321 320 320 320 319 319 319 319 319 319 319 319 319 319 320 319 319 319 320 320 321 320 321 321 322 322
309 315 317 317 319 316 316 316 316 316 316 321 323 323 333 339 338 340 341 341 342 340 340 338 336 337 335 336 339 338 337 337 336 336 335 336 336 336 335 335 334 334 334 334 333 333 332 332 332 331 331 330 330 331 331 331 331 331 332 333 332 331 329 328 327 326 326 325 323 321 320 320 319 318 318 318 318 317 317 317 317 317 318 318 318 318 318 318 318 318 319 318 318 318 318 318 319
313 317 318 317 319 317 316 315 315 318 316 315 316 317 329 335 336 337 342 341 341 341 340 339 337 336 334 335 338 338 337 337 336 336 336 335 335 335 334 333 332 332 332 332 332 332 331 331 330 330 329 329 329 329 329 329 330 330 331 331 330 328 328 327 326 326 324 323 322 320 319 319 317 317 317 317 317 316 316 317 316 316 316 316 317 317 317 317 317 317 317 316 316 316 315 316 317
316 318 318 317 318 317 317 316 314 314 316 313 314 316 320 327 333 337 341 340 339 341 340 339 338 336 335 337 338 337 337 337 336 335 336 335 335 334 333 331 331 331 331 331 331 331 330 329 329 328 328 327 327 327 327 327 328 328 328 328 328 327 326 326 325 325 323 321 321 319 318 317 316 316 316 315 316 315 315 315 315 315 315 316 316 315 315 316 316 315 315 315 314 313 313 315 315
317 317 317 315 315 317 318 317 313 313 317 315 313 316 316 324 335 338 340 340 338 340 339 337 337 335 335 337 337 336 336 336 336 336 335 334 334 332 331 331 330 330 330 330 330 330 328 327 327 326 326 326 325 325 325 325 325 325 325 326 326 326 325 324 324 324 323 321 320 318 317 316 316 315 315 314 314 314 314 313 314 314 314 314 314 314 314 315 314 313 313 313 312 312 312 313 313
317 317 315 312 312 314 314 315 316 316 318 316 313 315 315 321 334 338 338 338 336 338 338 336 336 337 337 336 336 336 335 336 336 335 334 333 332 331 330 330 329 329 329 329 329 327 327 326 326 325 324 324 324 324 324 324 324 323 323 323 323 324 324 323 323 323 322 321 319 318 316 315 315 315 314 313 312 312 312 312 312 312 312 312 313 313 313 314 313 312 312 312 312 312 312 312 312
317 315 312 310 309 312 313 314 317 317 316 316 314 315 313 317 329 337 337 336 335 337 336 335 336 337 338 336 335 335 335 335 335 334 332 330 330 330 330 329 329 329 329 328 327 326 326 325 325 324 323 323 322 322 323 322 322 322 321 321 321 321 322 322 322 321 320 320 318 317 315 315 314 314 313 312 311 310 310 310 310 311 311 311 312 312 312 313 313 312 312 312 312 312 311 311 311
314 312 310 311 310 314 317 316 316 316 314 314 314 315 313 314 325 335 336 333 335 337 336 336 337 338 338 335 334 335 335 335 333 332 331 329 329 330 328 328 328 329 328 327 327 326 325 324 323 323 322 322 322 321 321 321 321 321 320 320 319 319 319 319 319 319 318 317 316 315 314 314 313 312 312 311 310 309 309 309 309 309 310 310 310 311 311 311 311 310 310 311 312 311 311 310 311
314 315 313 311 311 314 316 314 314 315 313 312 314 315 313 314 325 333 333 333 336 337 336 336 336 338 338 335 334 335 334 333 331 330 330 330 330 329 328 328 328 328 327 326 326 325 324 323 322 322 321 321 320 320 319 319 319 319 318 318 318 317 317 317 317 317 316 316 315 314 313 313 311 310 310 310 310 309 308 307 308 308 309 309 308 309 309 309 309 308 308 309 310 310 310 309 309
314 316 314 312 313 314 313 312 314 315 314 313 312 315 318 321 329 333 330 332 333 335 337 336 335 337 338 336 334 336 335 332 330 329 329 329 330 329 329 328 327 327 326 325 325 324 323 322 322 321 321 320 319 319 318 317 317 317 316 316 316 316 315 316 315 315 314 314 313 313 312 311 310 309 309 309 309 308 308 307 307 307 308 308 308 308 307 307 308 307 307 307 307 308 308 308 308
313 313 312 314 316 316 313 311 315 315 315 315 311 315 322 326 329 331 329 331 329 332 335 336 335 337 338 336 335 336 334 331 330 329 328 329 329 329 328 328 327 326 325 325 324 323 322 322 321 320 319 319 318 317 317 316 315 315 315 315 315 314 314 314 314 313 313 312 312 311 311 310 309 309 308 308 308 308 307 307 306 306 306 307 307 307 307 306 306 306 306 306 306 307 307 307 307
312 311 312 317 317 317 314 312 315 315 315 314 311 314 319 320 325 330 329 330 330 329 335 338 338 338 338 338 335 335 334 332 330 329 328 329 329 328 328 327 326 325 324 324 323 322 322 321 320 319 319 318 317 316 315 315 314 314 314 314 313 313 313 313 312 312 312 312 311 311 310 309 309 309 308 308 307 307 307 306 306 306 306 306 306 306 306 306 305 305 305 305 305 306 306 306 306
314 313 315 316 313 312 313 312 315 315 314 314 310 312 315 315 321 328 327 329 331 330 336 340 340 339 338 338 335 335 334 333 332 330 329 329 329 328 327 326 325 325 324 323 322 321 320 320 320 319 318 317 316 315 314 314 313 313 313 313 312 312 313 312 312 312 311 311 311 310 309 309 308 308 308 307 307 306 306 306 305 305 305 305 305 305 305 306 305 305 305 305 305 305 305 305 306
315 315 316 315 313 311 311 312 312 312 313 314 312 312 312 315 323 328 327 331 332 331 336 339 339 339 339 337 336 335 334 334 333 331 330 329 329 328 327 326 325 324 323 322 321 321 320 319 319 318 317 316 315 314 313 313 313 312 312 312 312 312 312 311 311 311 310 310 309 309 308 308 308 308 307 306 306 306 305 304 305 304 304 304 304 305 305 305 305 305 305 305 305 305 305 305 305
312 312 311 312 313 313 313 312 311 311 312 313 314 313 313 319 326 328 329 334 335 333 335 337 338 338 338 337 336 335 334 334 332 331 330 330 329 327 326 325 324 322 322 321 321 320 319 318 318 316 316 315 314 313 312 312 312 312 312 311 311 311 311 311 310 310 309 309 309 308 308 307 307 307 307 306 306 306 304 304 304 303 303 303 303 303 304 304 304 305 305 304 304 305 305 305 304
312 311 310 311 311 311 312 312 310 310 311 312 312 312 316 327 331 328 329 334 337 336 337 338 339 338 337 337 335 335 335 333 331 330 330 329 327 326 325 323 322 321 321 320 320 319 318 317 317 315 315 314 313 313 312 312 312 311 311 311 310 310 310 310 309 309 308 308 308 307 307 307 307 307 306 306 306 305 305 304 303 303 302 302 301 302 302 302 303 304 305 304 304 305 305 304 304
Wind_Speed
11 13 16 17 16 16 12 6 5 4 4 7 7 8 9 11 11 6 10 10 5 9 10 10 11 10 8 9 16 16 16 12 7 4 4 8 18 21 21 24 23 24 24 22 21 19 17 17 18 18 18 19 18 18 18 17 17 17 16 15 16 17 16 15 14 13 13 13 13 12 12 12 12 12 11 12 12 12 12 13 13 13 13 13 12 12 12 12 12 12 12 12 12 13 13 13 12
11 13 15 16 14 10 6 3 6 5 6 7 6 8 9 11 12 6 11 11 9 10 11 10 9 7 6 14 15 14 16 13 11 8 8 17 22 21 23 22 22 23 22 21 20 19 18 18 18 19 19 19 19 18 18 17 17 17 17 17 18 17 16 15 14 13 13 13 13 12 13 12 12 12 12 12 12 12 12 13 13 12 12 12 12 11 11 11 11 11 11 11 11 11 12 12 12
10 11 13 14 10 7 4 4 6 6 7 7 7 9 10 13 12 8 13 11 10 11 11 11 9 6 7 13 14 13 10 9 11 10 10 19 18 18 23 21 23 23 21 20 18 19 19 18 19 19 20 20 20 20 19 19 19 20 20 19 19 17 15 15 14 14 13 13 13 13 13 13 13 13 13 13 12 12 12 12 12 12 11 11 11 11 10 10 10 9 10 11 11 11 11 11 12
9 9 12 11 7 5 5 5 5 7 7 7 6 10 12 14 12 10 10 8 9 9 8 10 8 9 12 11 10 11 9 6 9 9 9 15 18 21 24 22 23 22 20 19 17 19 19 19 21 21 21 21 22 21 21 21 21 21 21 19 17 15 15 15 14 14 13 13 13 13 13 13 13 13 13 13 13 12 12 12 11 11 11 10 11 10 10 9 9 8 10 12 11 11 10 10 11
10 11 12 8 5 4 4 4 5 7 7 7 6 11 15 16 14 8 7 4 3 6 6 7 5 10 13 10 6 7 7 7 9 10 11 16 24 25 24 23 22 21 20 19 18 20 20 21 22 22 22 22 23 22 22 21 21 20 19 17 15 15 15 15 14 14 14 13 13 13 13 13 12 12 11 11 12 11 11 11 10 10 10 9 9 9 8 8 9 9 10 11 11 11 10 9 9
12 13 12 8 5 4 4 6 7 8 8 9 8 12 15 19 18 2 3 4 2 1 1 5 2 12 10 9 9 7 6 7 10 12 14 20 26 25 23 22 20 21 21 19 18 19 20 21 23 22 22 22 22 22 21 20 19 18 17 16 15 15 15 15 14 14 14 14 14 13 13 12 11 10 9 9 9 8 8 9 9 8 8 8 8 7 7 7 9 9 9 10 11 11 10 9 8
11 9 7 7 6 4 6 8 8 9 9 12 12 14 16 20 17 5 5 9 3 3 3 1 3 11 8 8 8 10 9 9 11 13 17 22 25 24 22 21 21 22 21 20 19 19 19 21 23 22 22 21 21 20 19 18 18 17 17 16 16 15 15 15 15 14 14 14 13 13 12 11 10 9 8 8 8 7 7 7 7 7 7 7 7 7 6 6 8 8 8 10 11 11 10 10 9
10 6 4 5 6 5 7 9 9 9 9 13 14 17 19 20 18 2 4 8 3 3 2 4 4 6 9 11 7 11 13 12 15 17 21 23 24 22 21 22 23 22 21 21 20 18 19 22 23 22 21 21 20 19 19 18 17 17 17 17 16 16 16 15 15 15 14 13 12 11 11 10 9 9 8 8 8 8 7 6 5 5 6 6 6 5 4 6 7 6 6 8 10 10 10 10 10
9 6 4 5 6 7 8 10 11 12 12 14 15 17 20 20 20 9 1 8 8 7 7 4 2 7 10 13 9 7 12 15 19 21 21 22 22 21 21 22 23 23 22 22 21 18 19 21 22 21 20 20 20 19 18 18 16 17 17 16 16 16 16 15 15 14 13 12 11 10 10 9 8 8 8 8 8 8 8 7 5 5 5 4 4 4 4 5 5 5 5 7 9 9 9 10 10
7 6 4 5 7 9 9 10 10 13 15 16 16 17 21 14 8 7 2 7 9 9 7 1 6 12 13 12 9 6 11 16 19 20 20 21 21 20 21 22 23 25 24 23 21 18 18 20 20 20 20 19 19 18 18 17 16 17 17 17 16 16 15 15 15 14 13 12 10 10 9 8 8 7 7 8 8 8 9 9 7 5 4 4 4 4 4 4 3 3 4 6 8 8 9 9 9
5 5 5 6 7 9 9 10 11 12 15 16 16 17 20 6 6 2 5 7 8 10 6 2 6 15 15 10 7 8 15 17 18 20 20 21 20 20 22 23 24 24 25 25 21 18 19 19 20 20 20 20 18 18 18 17 17 16 17 17 16 16 15 15 14 13 12 11 10 9 8 8 7 7 7 7 8 8 9 10 9 6 5 4 4 4 3 3 3 3 4 5 7 8 8 8 8
6 6 6 7 7 9 10 12 13 15 16 15 14 18 17 5 6 5 7 9 9 9 9 2 9 16 13 9 6 10 16 16 19 21 19 20 19 20 22 23 23 23 25 26 23 20 20 19 18 19 20 20 18 17 17 17 16 16 16 16 16 16 15 15 14 13 11 10 8 8 7 7 7 6 7 7 8 8 8 9 9 8 6 5 4 4 3 4 5 5 4 5 6 7 7 6 6
7 7 7 9 8 9 12 12 13 15 14 14 14 18 16 7 6 7 6 9 8 10 10 4 16 16 10 9 8 10 14 16 19 20 19 19 19 20 21 22 23 23 24 24 24 22 21 20 17 19 20 19 18 16 16 16 16 16 16 16 16 16 15 14 13 12 10 8 8 7 7 7 7 6 6 6 7 8 8 8 9 8 7 5 4 4 4 5 7 7 5 5 6 6 6 6 5
7 7 7 9 10 11 12 11 12 13 11 14 10 9 7 6 7 8 6 9 9 10 4 13 19 14 11 10 7 8 12 16 19 19 19 19 20 20 20 23 24 24 23 23 24 23 21 21 19 19 20 18 17 16 15 16 16 16 16 16 16 16 15 13 12 11 9 8 7 7 7 8 8 7 6 6 7 8 8 7 8 9 8 6 5 5 5 6 8 8 6 5 6 6 6 6 5
9 6 7 9 10 12 12 11 13 13 10 14 6 9 3 6 4 7 7 9 7 8 4 16 15 9 11 11 8 11 15 20 20 20 20 20 21 20 22 24 24 23 23 23 22 22 21 21 21 20 19 17 16 15 14 15 15 16 16 16 16 15 14 12 11 9 8 8 8 8 9 9 9 8 7 6 6 7 7 7 8 9 9 8 6 5 6 7 8 7 6 5 5 5 5 5 4
8 7 7 8 10 12 12 12 13 12 12 14 1 6 5 6 7 6 4 6 5 10 7 11 11 9 13 13 13 20 22 23 21 21 21 20 21 21 22 23 23 23 23 24 22 22 21 21 21 19 19 18 16 14 14 14 14 15 15 15 15 14 12 11 9 8 8 8 9 9 8 9 9 8 7 7 5 5 6 6 8 10 11 10 8 6 5 6 7 7 5 4 3 4 3 3 3
7 8 9 9 11 12 11 12 12 11 14 10 5 6 7 5 9 6 2 5 8 12 2 10 11 11 11 13 23 28 26 24 21 22 21 20 20 20 21 22 22 22 22 24 22 22 21 20 20 19 19 18 17 16 14 14 14 15 14 14 13 12 11 9 9 8 8 8 9 8 8 7 6 7 6 5 5 5 5 5 6 8 10 10 10 7 5 4 4 4 3 3 1 1 1 0 1
8 7 9 10 11 12 12 14 13 12 16 10 6 5 6 5 5 6 4 7 11 9 11 17 14 12 10 20 31 30 26 25 22 22 22 19 19 18 19 21 21 20 22 22 20 21 21 20 20 20 20 19 18 17 14 14 14 14 13 14 12 11 11 9 8 8 7 8 9 8 8 6 4 4 4 3 2 4 4 3 5 6 7 9 9 9 7 4 2 2 2 2 2 1 2 3 3
9 7 9 10 11 12 13 15 16 17 18 12 4 3 2 4 5 1 4 6 9 9 14 19 17 17 16 24 29 27 26 24 22 21 21 19 19 19 17 19 19 19 21 20 19 20 20 21 21 21 21 19 17 16 15 15 15 13 12 13 12 11 10 8 7 7 4 5 8 7 6 6 6 4 3 4 2 3 4 3 3 4 5 6 6 6 7 6 4 2 0 3 4 4 5 4 5
10 9 9 10 13 14 16 18 20 19 12 7 3 5 4 3 5 4 6 7 11 11 12 17 17 19 18 20 23 25 24 21 22 20 19 20 19 19 18 18 19 19 20 19 18 18 19 20 20 20 20 18 16 14 15 16 15 14 13 12 11 9 9 8 7 7 6 6 7 7 6 7 8 7 5 5 3 2 4 2 3 3 3 5 4 3 4 4 3 2 2 2 3 4 6 5 7
9 10 11 12 14 14 18 21 21 14 5 7 2 2 3 2 5 7 9 10 9 11 13 20 19 22 20 19 21 22 22 21 21 20 19 19 18 16 18 20 19 20 21 20 19 17 19 19 19 20 18 17 15 15 16 16 16 16 15 13 11 9 9 10 7 6 7 7 8 7 7 7 6 5 6 5 5 4 2 1 1 1 2 2 2 2 2 2 3 2 3 4 3 3 5 8 9
9 13 15 16 16 15 17 17 14 9 3 6 6 3 5 6 8 8 11 11 8 11 12 23 22 23 22 20 20 20 20 20 19 20 19 18 18 16 17 19 18 19 20 19 18 17 18 18 17 17 16 15 15 15 16 16 16 16 15 13 12 10 10 11 8 7 8 7 7 7 8 6 5 5 4 3 4 5 4 3 3 2 1 1 1 1 2 5 6 4 5 6 5 6 8 9 8
10 12 16 17 19 18 15 11 6 4 3 5 8 8 9 9 10 9 10 12 11 10 5 22 21 21 23 20 19 19 19 19 17 19 19 18 18 17 18 19 18 18 18 17 17 16 17 16 15 15 14 14 14 14 15 15 14 14 14 13 12 10 10 10 8 8 8 7 7 7 8 5 4 3 2 1 3 3 3 2 3 2 2 3 3 2 2 5 6 5 7 7 6 8 9 6 6
13 12 14 17 19 19 16 10 1 1 5 7 9 11 11 9 9 10 8 12 12 5 16 22 20 19 21 18 17 18 18 18 18 18 18 18 20 20 19 19 18 17 16 16 16 16 15 14 14 12 12 13 12 12 14 14 12 12 13 13 11 10 10 9 8 8 7 7 7 7 7 6 4 2 1 0 1 0 1 2 2 1 1 2 2 4 4 3 4 3 4 5 5 8 9 7 7
16 15 15 15 17 18 15 10 3 4 6 9 11 11 11 9 9 12 9 9 3 16 22 19 18 17 17 16 17 17 18 19 16 16 16 16 20 21 18 17 17 16 16 15 15 14 13 13 12 11 12 10 10 11 12 12 12 12 12 11 11 10 9 8 8 7 6 6 5 5 5 6 7 4 2 1 1 2 1 1 2 1 2 2 1 3 5 4 4 3 4 5 5 8 10 8 8
14 17 16 15 16 15 12 11 9 7 7 8 12 13 11 10 11 11 5 9 14 18 15 15 16 14 13 12 11 9 8 8 8 9 13 16 20 19 15 14 15 16 16 15 13 13 12 11 11 10 10 8 10 11 7 8 11 12 10 9 10 9 8 10 9 7 6 5 4 3 4 5 7 6 3 3 3 1 1 2 1 1 1 1 1 3 3 4 5 5 5 6 6 7 9 8 8
13 18 17 19 19 12 9 12 12 10 9 10 11 13 12 12 12 5 7 12 18 17 8 8 10 8 8 8 10 11 10 12 10 6 6 9 14 16 13 13 15 15 15 14 11 12 12 10 10 10 8 7 7 5 3 7 7 7 7 8 7 6 8 9 8 7 5 4 3 3 3 4 5 4 4 3 3 4 3 2 1 1 1 1 1 1 1 2 4 5 5 5 6 7 9 8 8
15 18 15 19 22 15 12 13 13 10 10 12 11 13 13 12 8 2 8 10 16 15 9 10 12 9 11 12 13 10 10 13 11 7 10 10 6 5 12 16 17 14 12 12 11 12 10 7 9 8 7 6 1 3 5 5 4 4 5 5 5 6 8 7 7 6 5 3 3 3 3 4 3 2 3 3 2 2 2 2 1 0 1 1 1 1 1 2 2 4 4 5 6 7 8 9 9
16 16 11 14 19 18 16 14 14 12 10 12 11 12 12 6 3 7 7 11 17 16 12 11 10 9 11 11 10 9 8 12 14 11 9 7 4 1 14 20 16 13 12 13 14 13 10 10 10 7 7 7 2 4 8 8 7 8 5 4 4 4 7 7 7 6 5 4 4 4 4 4 3 2 3 3 2 2 2 2 2 2 2 1 2 2 2 3 3 4 4 5 6 6 7 9 9
16 15 10 10 13 15 17 14 14 14 11 12 11 9 6 5 8 6 6 12 18 16 13 11 9 9 10 10 9 11 9 8 12 12 8 10 5 2 14 18 13 13 14 14 15 13 11 13 13 10 9 8 4 7 10 9 8 8 7 7 5 4 4 5 7 6 6 6 4 4 4 4 4 3 2 2 3 2 2 2 2 2 2 3 3 3 4 4 4 4 4 6 7 7 8 9 10
13 12 10 10 9 11 16 16 16 14 11 13 12 9 4 6 7 5 4 10 17 16 14 12 10 9 9 9 10 11 8 3 8 13 10 10 7 6 13 15 13 16 16 14 14 13 12 12 11 9 9 7 5 6 7 8 7 6 6 7 7 5 3 3 6 6 6 6 5 5 4 4 4 3 3 3 3 3 3 3 4 3 4 4 3 3 4 5 5 6 5 6 8 8 9 10 11
10 10 10 10 9 10 14 18 19 16 13 16 15 8 4 6 6 6 3 8 16 15 15 14 11 11 10 11 12 11 9 6 7 12 14 14 14 14 17 15 14 17 16 15 15 14 13 11 10 11 10 9 8 7 5 6 7 5 5 5 6 6 3 4 6 6 6 7 6 6 5 6 5 5 5 4 4 5 5 5 6 6 6 6 6 6 6 6 6 7 7 7 9 10 10 11 12
9 11 10 11 11 11 12 15 20 20 15 16 18 9 5 7 7 7 5 8 13 14 15 14 12 10 10 11 13 12 11 9 7 12 15 16 19 21 20 17 16 17 16 16 16 15 13 11 10 11 10 9 8 8 5 5 6 5 5 4 4 6 4 4 6 7 8 8 7 7 7 7 7 7 7 6 6 7 7 7 7 7 8 8 8 8 7 7 8 8 9 9 9 11 12 12 13
10 10 10 11 13 12 11 13 18 22 18 16 19 12 6 11 11 8 8 8 10 12 14 14 11 9 11 11 10 11 12 10 9 13 17 19 21 23 22 20 19 18 16 16 16 15 14 11 9 9 9 9 8 8 6 6 5 4 5 4 4 6 3 2 6 8 9 9 8 9 8 8 9 8 9 8 8 8 8 8 9 9 9 9 9 9 9 9 9 9 11 11 11 11 12 13 14
11 10 10 10 13 13 13 14 13 22 21 16 18 12 10 13 13 9 9 8 8 12 13 13 12 10 11 11 9 9 11 11 12 16 22 25 26 25 24 22 21 18 15 16 16 14 14 11 10 9 8 8 8 8 8 7 5 4 5 4 4 7 3 1 8 11 11 11 11 11 10 11 11 10 10 10 10 10 10 10 10 11 12 11 11 10 11 12 11 11 11 11 12 12 12 13 14
15 14 12 12 13 12 15 16 13 20 18 16 16 12 15 14 13 11 10 9 8 12 13 11 12 12 11 11 9 10 11 9 10 14 17 20 23 25 25 25 23 20 16 16 16 15 14 12 11 10 8 7 7 7 7 6 3 3 4 3 5 6 4 4 11 13 13 13 13 13 13 13 12 12 12 11 12 12 13 13 12 13 13 14 14 14 13 13 13 13 12 12 14 14 13 13 14
17 15 13 15 14 11 15 17 14 19 14 14 17 11 16 14 13 13 11 11 11 12 14 12 12 12 12 11 10 11 11 10 11 12 11 11 16 22 24 25 23 20 16 15 16 17 15 14 12 10 8 7 6 5 5 5 4 4 6 6 4 5 5 8 12 12 12 13 13 14 15 14 14 14 13 12 12 13 14 14 14 14 13 13 14 14 13 12 13 15 14 13 15 16 16 15 17
17 15 13 13 14 12 15 17 15 19 12 13 15 11 13 11 12 13 10 10 11 11 13 12 11 12 12 12 12 12 10 10 13 14 13 11 13 18 20 21 20 18 16 14 16 17 14 14 13 11 10 7 6 6 5 6 7 7 8 6 3 5 5 11 12 11 12 12 12 14 14 14 13 13 13 12 12 13 14 14 15 15 14 13 13 13 13 13 15 15 15 15 15 15 15 15 19
16 12 12 11 12 13 14 18 18 18 10 11 13 14 10 8 9 9 9 8 8 8 9 8 6 6 11 13 12 12 11 11 12 12 14 15 15 16 16 18 18 18 17 15 16 16 15 15 15 14 12 10 9 8 8 9 9 9 8 5 5 5 10 12 12 13 12 12 13 12 13 14 12 12 12 11 11 12 12 13 14 14 14 14 13 13 14 14 15 15 15 15 15 15 13 14 17
15 12 11 10 12 13 11 14 14 14 8 5 13 14 7 6 7 6 7 6 8 7 6 7 4 4 6 13 13 13 14 13 13 12 13 16 18 17 16 17 18 18 19 17 16 17 16 16 16 15 14 12 11 11 11 11 11 11 9 8 8 9 11 12 12 12 12 12 13 12 13 13 12 12 12 12 12 12 12 11 12 13 14 13 12 13 14 14 14 14 14 15 15 15 14 15 15
15 16 13 10 14 17 13 11 12 11 10 11 16 10 5 7 8 8 7 6 8 10 8 6 6 3 3 10 15 15 15 14 14 14 13 15 17 17 18 19 19 19 18 17 17 18 18 17 16 15 14 13 12 11 10 11 11 10 8 8 10 12 11 11 11 11 11 12 13 13 13 12 11 12 12 12 12 12 13 11 10 11 13 13 12 12 13 13 13 14 15 15 15 15 15 15 14
14 17 16 14 13 18 19 13 14 9 10 14 14 5 3 7 10 10 9 9 9 9 9 8 7 7 4 7 13 15 14 14 14 14 14 15 17 18 19 19 20 20 19 19 19 20 20 20 18 17 17 15 12 10 9 8 8 7 5 7 10 11 9 9 10 11 11 11 11 12 12 11 12 12 12 13 13 13 13 12 11 11 11 12 12 12 12 13 14 14 14 14 14 15 15 14 14
11 14 17 18 14 17 21 14 12 7 9 11 12 6 2 4 8 10 10 11 11 7 8 9 7 9 6 6 9 14 13 13 14 14 15 16 18 19 18 18 19 19 19 20 21 20 21 21 19 18 17 15 13 11 9 8 6 5 5 7 10 11 9 9 10 10 11 10 10 10 10 11 12 13 14 14 14 13 12 12 11 11 10 11 12 12 13 14 13 13 13 13 14 14 15 14 15
9 11 16 20 17 17 19 13 10 7 7 10 13 10 4 2 6 11 12 11 12 9 9 9 7 9 8 7 8 14 13 13 13 13 14 16 18 19 19 18 18 17 18 19 19 20 22 21 20 19 17 14 13 12 11 9 7 6 8 10 12 11 10 9 9 10 10 10 11 11 11 11 12 13 13 13 12 11 11 12 11 11 11 11 12 12 13 13 13 13 12 13 14 14 15 14 14
10 12 17 19 17 16 17 12 11 9 8 10 13 13 6 4 7 10 12 12 13 13 13 13 11 12 11 10 10 14 14 13 13 13 14 16 17 19 20 20 18 17 17 18 19 21 22 22 21 20 18 15 13 12 11 8 7 6 6 8 10 10 9 9 9 9 11 11 12 12 11 11 12 12 12 11 10 10 11 12 12 12 12 12 13 12 12 13 13 14 14 14 13 13 14 13 13
11 15 17 16 15 13 14 11 11 10 9 9 12 14 8 5 9 10 9 11 12 12 12 13 13 11 9 11 13 15 13 12 12 13 14 16 18 19 20 21 19 17 17 19 19 20 21 22 21 20 18 16 13 11 10 8 7 7 7 8 9 9 8 9 9 10 11 12 12 12 11 11 11 11 11 10 10 11 11 12 12 13 13 13 13 13 12 13 13 13 13 13 13 13 13 12 13
14 14 13 12 11 9 10 8 8 8 8 10 14 15 11 6 7 9 9 10 12 11 9 11 13 11 11 12 14 14 12 12 12 12 14 17 20 20 20 21 19 17 18 19 18 19 20 20 19 19 17 14 12 10 9 8 7 8 8 8 8 8 8 8 8 9 11 12 12 11 11 10 10 10 10 10 11 11 12 13 13 13 14 14 13 13 13 13 13 13 13 13 13 13 13 12 12
16 13 9 9 8 7 7 5 5 6 6 10 16 16 14 7 6 11 12 12 15 13 12 15 17 17 16 14 14 14 12 13 13 11 13 16 18 19 20 20 19 17 17 18 19 20 20 18 17 17 14 12 12 10 9 9 8 8 8 7 7 7 7 7 7 9 11 11 11 11 10 9 9 9 10 11 12 12 13 14 14 14 15 14 14 13 13 12 12 13 13 13 13 13 12 12 12
15 13 9 9 8 7 7 5 5 7 7 10 15 15 13 7 8 17 17 16 19 18 16 18 20 19 17 16 15 14 13 13 13 11 12 13 15 18 19 19 18 17 17 18 19 20 19 17 16 15 14 12 11 11 10 9 9 9 8 7 7 7 8 8 9 10 11 11 12 11 9 9 10 10 11 12 12 13 14 14 14 15 15 15 14 13 13 13 12 13 13 12 12 12 13 12 12
14 11 9 9 8 7 7 7 7 7 8 12 14 11 9 6 8 19 21 19 21 19 16 17 19 18 16 17 16 15 15 14 12 12 11 11 13 17 18 17 16 18 20 20 19 20 19 17 15 14 13 12 11 11 10 9 9 9 8 8 9 9 10 10 11 12 12 12 13 11 9 10 10 11 11 11 12 13 14 14 15 15 15 15 15 14 14 14 13 13 13 12 11 12 12 12 12
12 10 10 9 8 7 7 7 7 6 7 11 10 5 5 4 7 17 18 16 18 18 16 16 15 15 15 15 15 15 16 15 12 12 12 13 15 17 17 17 17 19 21 20 19 20 19 17 15 14 13 13 12 11 10 9 9 9 9 10 10 10 10 12 13 13 13 13 12 10 10 11 12 12 11 11 12 12 14 15 15 16 15 15 16 15 14 14 14 13 14 13 12 11 12 12 13
10 10 11 9 9 7 5 6 5 3 5 7 7 4 1 1 8 14 15 16 20 19 19 17 15 15 15 14 14 14 15 15 14 12 12 14 17 18 18 18 18 19 20 20 20 20 19 17 16 15 14 13 12 11 10 10 10 10 10 11 11 11 11 13 14 14 14 13 11 11 12 12 12 12 12 12 13 13 14 14 15 16 16 16 16 15 15 14 13 13 14 14 13 12 12 12 13
8 9 11 10 10 8 5 6 4 1 4 5 6 5 3 3 7 12 14 16 19 19 20 19 17 17 16 13 13 13 15 14 14 13 13 15 17 18 18 18 19 20 19 20 20 20 19 18 16 15 14 13 12 11 11 12 12 12 12 12 13 13 13 13 14 14 13 13 12 12 12 12 12 12 12 12 13 14 14 14 15 16 16 15 15 15 14 14 13 13 13 14 14 13 12 12 13
8 9 11 9 11 9 5 5 4 3 6 5 8 10 7 6 5 8 13 15 15 18 22 20 18 18 16 14 13 14 15 15 15 15 14 16 18 19 19 19 20 20 20 21 21 20 19 18 17 16 15 13 12 12 12 13 13 13 13 13 13 14 14 14 13 13 13 13 13 13 12 12 12 12 12 12 12 13 14 14 14 15 15 15 15 14 14 14 14 13 13 14 14 13 12 13 13
12 9 10 8 8 8 7 5 5 6 6 4 9 12 9 8 7 8 13 13 14 19 21 20 20 18 15 14 15 15 16 14 14 15 13 13 17 19 20 20 20 21 22 22 21 20 19 17 16 16 15 14 13 13 13 13 13 14 14 13 13 14 14 14 14 13 14 14 13 13 13 12 12 12 12 12 12 13 13 14 14 14 14 14 14 14 14 13 13 14 13 14 14 13 13 13 13
14 10 11 9 7 7 7 5 4 6 6 5 8 9 7 6 9 13 13 14 17 18 18 18 20 19 14 13 13 13 13 11 12 13 12 12 16 20 21 22 23 23 22 22 21 20 20 18 17 15 15 14 13 13 13 13 13 14 14 14 14 14 14 14 14 14 14 14 13 13 13 13 12 12 12 12 12 13 13 13 14 14 14 14 14 14 14 13 13 13 13 13 13 13 13 13 13
11 9 10 10 7 6 7 6 6 6 6 5 6 6 5 3 6 13 15 17 20 19 17 16 16 17 15 14 13 12 11 11 11 12 11 12 17 21 22 23 24 23 22 21 20 20 20 18 16 16 15 15 14 14 14 14 15 15 15 15 14 14 14 14 14 14 14 14 14 13 13 13 13 12 12 12 12 13 13 13 14 14 14 14 14 14 14 13 12 12 12 12 13 12 12 12 13
11 8 8 10 9 7 8 8 8 7 5 5 6 5 3 2 3 10 13 15 19 20 18 15 16 17 16 15 15 14 12 12 12 11 10 12 17 20 22 23 23 23 22 21 20 20 19 18 17 16 16 15 15 15 15 16 16 16 15 15 15 15 15 14 14 15 15 14 14 14 13 13 13 12 12 12 12 12 13 13 13 14 14 14 14 14 13 13 13 12 11 12 12 12 12 12 12
Wind_Direction
313 320 314 304 300 296 291 283 282 261 255 272 284 289 286 283 286 313 320 314 51 46 21 355 342 347 352 59 80 63 44 37 29 41 84 122 137 132 124 121 121 118 120 128 127 126 127 129 129 129 127 125 125 122 123 122 120 120 120 121 121 123 120 115 112 110 108 104 102 101 100 98 95 94 94 96 95 95 95 95 98 100 103 102 98 95 89 85 81 80 75 63 56 57 63 67 72
312 309 303 293 282 283 301 314 288 280 273 275 279 271 273 279 285 339 21 23 28 20 6 344 348 351 20 72 77 68 52 40 59 78 95 120 125 121 125 126 122 120 122 127 126 128 130 131 131 130 127 124 124 122 122 121 121 121 124 124 124 124 121 118 115 113 109 105 104 104 101 99 95 94 94 95 98 98 97 96 97 101 102 101 98 95 91 86 81 80 75 63 56 54 55 61 65
310 306 306 302 277 253 271 283 273 278 275 274 283 279 276 271 284 14 44 36 2 360 2 339 348 3 25 53 63 79 73 51 74 94 111 120 121 123 128 126 123 122 124 126 128 132 132 133 133 130 127 124 123 122 122 120 120 121 123 124 124 123 121 119 116 113 109 107 106 105 102 99 97 95 96 95 98 99 99 99 99 100 99 98 97 94 92 86 80 76 70 61 56 55 52 57 61
304 300 295 304 297 267 272 270 267 278 271 265 275 277 278 275 299 10 42 35 352 347 356 336 358 45 46 48 65 85 85 81 97 107 115 121 125 130 128 126 126 126 127 127 128 132 132 132 132 130 127 126 124 123 122 121 121 121 123 123 123 122 120 119 116 113 110 110 108 106 103 100 99 97 98 98 98 98 99 101 102 101 101 102 100 97 94 90 84 79 69 60 56 54 51 54 62
297 287 275 281 303 302 295 286 281 275 268 275 276 279 292 295 304 3 40 37 2 340 354 323 353 70 67 59 63 85 103 126 122 115 115 123 128 129 129 129 131 131 129 125 128 131 131 131 131 130 128 127 125 125 124 124 124 124 124 123 123 123 122 119 117 116 112 111 109 107 105 102 101 100 101 101 101 100 101 103 103 101 102 104 103 104 102 98 91 84 70 61 58 54 52 53 62
284 279 261 246 273 308 285 267 272 268 265 274 273 276 285 282 280 50 54 311 94 69 8 303 37 96 82 68 67 82 123 134 115 121 125 128 132 132 134 136 135 133 126 124 129 129 130 132 130 129 128 127 126 126 127 127 127 126 126 125 126 125 123 121 119 118 115 113 110 108 106 106 105 102 99 99 102 103 107 111 110 106 103 102 99 99 95 95 94 85 71 63 59 56 56 58 66
277 282 256 234 251 257 256 260 263 265 266 267 269 272 271 271 276 73 22 315 65 150 161 236 107 104 95 93 75 63 93 127 119 130 133 133 137 136 140 137 133 131 123 123 127 127 133 134 131 129 128 128 128 127 128 128 128 128 129 128 128 127 125 123 121 119 117 114 113 112 110 110 106 99 95 94 99 102 111 120 125 120 112 113 105 99 93 100 99 85 74 67 61 59 63 65 69
263 276 277 271 269 252 258 268 265 266 265 261 265 271 276 277 279 6 31 307 312 283 235 200 193 107 87 98 88 59 79 111 121 130 134 137 141 140 140 134 132 130 123 123 126 129 135 135 132 132 131 131 130 128 128 128 129 130 131 131 129 128 127 125 122 121 119 117 115 115 111 107 101 96 94 93 94 92 96 104 114 112 108 120 115 107 103 108 104 85 77 72 67 65 69 71 69
244 239 260 272 267 267 265 267 268 271 267 257 256 258 262 262 265 268 38 294 293 294 274 246 157 118 100 92 94 79 89 111 121 128 135 140 143 142 139 135 132 126 123 127 128 130 136 137 135 134 132 132 131 128 129 130 131 133 133 133 131 130 129 126 124 123 120 118 114 109 104 100 96 93 92 88 86 84 82 80 86 92 97 114 108 99 94 105 108 91 84 77 73 71 77 77 71
232 226 244 261 262 268 263 266 266 267 268 263 259 255 256 247 258 290 304 284 292 293 278 51 95 120 117 103 104 110 118 126 129 134 142 144 144 145 144 138 130 125 125 128 128 131 137 139 135 133 133 133 132 130 133 134 134 135 135 135 133 132 130 128 125 123 120 116 111 105 99 96 95 93 92 88 85 84 80 73 74 85 98 117 118 112 104 107 110 100 97 83 75 75 82 83 77
237 220 233 253 261 264 263 267 266 267 267 267 267 264 261 230 108 291 290 287 282 288 280 159 131 117 110 111 110 129 138 141 141 145 150 147 146 148 143 134 129 128 129 130 132 134 136 138 135 135 136 136 136 135 138 137 137 137 137 136 135 134 132 130 126 124 123 118 114 108 101 97 95 97 97 95 88 82 78 70 66 76 96 119 132 135 126 119 109 116 115 88 73 73 82 87 84
244 230 231 241 249 258 264 265 268 272 271 273 272 271 262 178 121 250 274 285 273 267 262 214 124 115 115 119 117 142 147 150 147 149 149 144 143 144 139 131 131 132 131 133 136 137 136 137 137 139 139 138 138 138 140 138 139 139 139 138 136 136 134 132 130 130 127 124 120 110 104 98 95 99 101 99 89 81 77 66 59 67 88 108 128 135 134 128 117 123 122 92 72 68 76 83 89
238 238 242 247 250 254 260 262 267 269 273 276 271 280 269 170 153 232 247 263 266 269 264 135 116 114 118 119 128 150 150 153 146 144 144 141 139 138 137 134 134 134 134 136 137 138 138 137 137 143 142 140 141 139 139 139 140 140 139 140 138 138 138 136 135 134 132 129 123 113 104 94 91 95 99 97 87 83 76 63 55 60 77 93 113 125 127 131 129 130 127 99 76 65 65 70 84
231 240 247 256 258 256 259 259 266 265 267 268 279 321 303 128 157 204 214 245 249 258 263 107 116 108 107 118 139 157 152 151 144 143 145 143 141 139 138 137 136 136 138 139 139 140 140 140 140 144 144 143 143 138 139 142 141 141 141 140 140 140 140 140 138 137 136 131 119 108 97 86 81 83 86 84 83 81 73 63 58 57 65 77 93 112 122 128 131 135 136 114 87 71 63 62 69
228 242 244 253 256 255 259 255 262 265 267 268 307 39 81 116 188 212 206 242 260 247 156 111 122 115 135 150 161 161 154 151 146 146 146 144 143 140 140 139 139 139 140 142 141 142 142 143 143 142 143 145 145 141 142 144 142 142 142 142 143 143 142 141 139 137 133 122 111 100 94 87 76 80 80 66 70 74 73 67 59 58 59 67 80 99 121 130 136 143 145 127 100 82 68 63 66
226 246 244 247 249 249 253 254 263 265 271 270 261 97 154 148 207 221 218 241 281 258 218 137 128 118 152 161 153 152 149 150 148 147 146 144 142 140 141 140 140 139 142 144 144 144 144 144 143 142 145 146 147 149 148 146 146 145 144 145 144 143 140 138 136 133 125 110 101 98 102 96 72 75 78 58 58 62 68 67 58 60 61 64 72 86 113 130 142 151 156 146 117 91 70 65 70
219 234 242 244 241 244 246 246 256 260 273 273 141 165 214 190 197 185 244 249 255 260 207 108 107 114 154 146 138 145 146 146 146 147 147 146 144 142 141 140 139 137 141 144 144 146 146 146 145 145 146 146 147 150 149 150 151 148 147 147 144 142 141 142 139 129 118 108 105 101 103 107 77 68 76 65 55 54 67 67 57 59 62 66 72 78 94 122 150 165 175 175 148 90 31 324 177
220 222 235 242 238 240 243 245 257 264 271 263 159 205 234 213 210 158 199 232 243 247 100 90 85 96 125 126 131 142 146 146 149 151 149 152 151 147 144 142 140 138 140 142 145 147 147 148 148 147 145 144 146 146 150 156 153 150 149 146 145 150 150 149 141 120 105 106 109 103 94 110 117 66 72 111 64 45 71 78 59 56 59 63 69 74 77 90 130 187 220 246 261 280 296 266 228
221 226 229 237 242 243 244 247 256 253 259 264 159 140 181 229 273 181 213 228 238 230 120 103 92 92 105 120 131 142 147 149 153 154 153 159 159 151 145 142 140 138 140 143 148 150 147 150 149 146 143 143 144 146 155 158 154 156 154 150 154 160 154 142 134 133 136 116 111 111 102 117 134 125 133 158 165 57 77 94 80 65 59 55 59 67 70 76 77 97 255 280 267 272 277 261 236
218 230 235 236 240 249 253 249 251 247 252 290 95 137 193 214 280 289 261 243 237 233 140 123 118 116 121 126 134 143 148 152 154 155 159 165 161 152 143 141 144 140 141 143 146 147 146 148 147 144 143 145 146 148 154 156 158 164 164 164 167 168 157 149 150 160 169 147 135 139 134 135 140 151 164 163 178 125 89 94 100 97 82 58 51 45 47 60 56 62 40 338 283 262 257 261 248
210 223 236 242 239 240 248 247 251 259 283 312 350 152 237 220 260 260 258 252 240 235 161 141 137 132 136 139 142 148 153 157 159 161 165 166 158 150 143 143 144 138 138 139 141 144 144 146 147 146 146 148 149 150 152 155 164 167 171 174 170 172 163 162 177 173 159 145 148 146 132 139 151 159 166 169 182 185 194 226 145 126 111 58 22 4 343 313 325 347 339 336 328 298 276 282 268
213 225 232 244 248 242 246 249 250 253 254 284 291 277 276 278 266 244 247 250 242 251 178 146 140 138 142 147 151 155 160 163 165 167 167 162 151 145 142 137 134 134 137 138 140 142 144 147 149 151 153 154 153 156 156 159 169 170 173 174 171 181 172 167 179 168 158 145 142 141 134 147 174 170 153 165 182 190 222 233 228 237 195 234 296 354 288 257 272 287 276 288 304 301 296 288 273
218 229 230 235 248 254 264 275 275 269 248 262 274 274 281 287 279 257 247 251 259 287 137 137 134 134 142 148 157 164 167 167 170 171 163 154 146 142 138 133 134 140 140 139 140 140 146 149 151 156 158 157 157 159 158 162 171 167 168 173 175 182 171 167 170 161 160 149 143 147 146 151 176 179 123 148 186 180 213 207 207 231 230 235 239 258 266 249 251 248 247 263 280 279 278 272 263
221 233 233 232 241 250 261 272 273 237 264 262 267 270 269 266 272 266 244 249 262 38 92 124 130 135 143 150 162 166 166 168 172 165 152 145 139 136 137 138 140 140 137 135 135 140 148 150 151 156 156 159 161 159 163 167 169 161 165 176 176 173 165 166 163 155 153 146 153 157 151 146 148 172 70 56 241 196 185 201 233 238 253 255 218 242 274 284 256 244 252 258 269 278 276 269 266
221 232 238 236 238 238 241 255 229 183 230 251 255 256 252 246 263 268 256 265 277 91 99 116 124 136 145 157 165 163 167 169 163 147 141 141 132 131 137 141 140 133 131 129 131 141 148 151 152 154 156 161 158 161 173 169 163 163 171 177 166 161 162 163 159 152 150 150 160 160 151 147 142 140 112 138 274 345 24 259 301 312 308 341 23 285 295 317 308 294 296 286 275 286 288 282 284
218 227 238 242 245 239 225 231 226 212 224 228 237 242 244 245 252 264 309 18 46 75 98 117 124 141 147 158 156 144 159 135 92 105 134 141 128 126 138 141 135 125 124 126 134 143 143 149 150 149 152 156 162 175 186 151 148 165 173 166 155 158 157 153 153 147 150 153 152 153 148 149 145 138 134 163 186 203 243 249 273 211 256 312 311 304 309 318 320 307 303 307 297 298 305 304 301
224 225 229 239 249 248 228 233 227 221 232 222 228 238 238 238 234 254 23 52 64 57 51 94 105 120 106 76 60 38 20 44 47 53 91 114 119 129 142 131 121 115 117 126 133 137 140 148 141 138 141 147 168 184 150 117 130 158 159 153 159 172 163 153 150 147 153 158 149 154 148 138 136 133 138 146 156 172 205 213 196 193 159 117 243 293 310 285 302 306 300 305 305 305 312 316 305
234 235 227 233 244 243 227 234 233 224 228 220 230 244 241 239 224 72 39 70 88 77 52 56 59 62 68 60 58 44 24 44 57 56 42 27 20 122 125 109 110 116 126 134 128 124 128 124 110 110 129 142 97 59 113 128 140 159 146 146 165 173 163 153 147 147 150 151 141 137 130 120 120 123 129 122 130 153 163 141 126 51 84 81 288 289 319 306 302 304 302 301 302 299 303 306 300
237 239 235 234 240 239 225 225 230 224 222 210 218 244 242 234 99 75 69 81 87 89 82 76 75 76 81 78 70 69 66 59 67 74 70 64 352 21 115 115 125 137 140 129 119 115 107 110 120 127 153 170 166 133 166 176 167 172 168 158 180 177 162 154 148 147 141 138 134 126 117 111 112 101 101 102 103 102 80 90 90 56 49 17 339 343 350 345 331 320 315 310 306 300 303 304 299
236 231 229 237 240 235 221 220 226 221 223 207 202 233 230 94 77 80 101 101 92 88 88 87 90 90 88 84 77 81 83 78 101 120 116 113 125 106 117 123 129 132 125 116 124 135 127 131 150 159 162 170 167 165 177 174 162 170 169 165 184 191 176 158 145 145 141 134 125 120 113 102 98 83 81 91 100 95 62 56 50 51 31 2 351 348 349 344 334 331 331 325 321 319 315 312 309
232 228 226 229 238 236 216 215 223 219 219 210 209 227 197 95 94 95 97 109 101 98 103 99 97 110 113 98 92 90 88 91 122 129 120 109 114 92 102 105 101 110 119 125 138 145 131 127 141 153 155 155 155 165 168 161 160 167 166 169 174 171 203 184 143 138 137 127 117 112 101 93 85 74 61 44 60 49 25 32 16 16 18 357 340 340 349 350 341 331 331 331 329 325 321 317 314
219 220 227 220 227 243 223 210 213 217 213 208 219 228 155 137 134 118 122 113 103 105 113 114 118 132 135 119 113 108 113 138 133 130 129 122 119 106 100 101 106 118 132 142 138 128 119 122 141 157 160 155 157 164 158 152 156 165 172 177 162 149 201 199 143 129 121 113 112 105 88 81 68 61 52 22 34 32 19 26 16 12 11 355 345 353 358 358 347 333 331 333 329 326 324 322 316
214 214 224 217 217 235 234 215 204 209 215 206 214 220 127 148 148 127 147 127 112 114 117 126 133 135 135 131 135 132 129 142 146 141 139 134 131 121 114 120 127 132 141 140 131 123 117 123 147 157 150 146 154 157 154 145 150 168 165 160 149 148 200 200 131 112 105 103 99 90 81 75 61 53 46 30 37 31 18 23 19 15 11 1 355 357 358 357 351 340 336 335 332 327 324 323 319
212 208 221 225 221 223 233 230 200 195 211 210 208 207 132 138 144 137 151 146 132 125 124 133 133 129 133 135 143 141 137 146 157 154 149 144 137 126 122 130 135 137 136 132 131 131 126 126 143 150 139 132 139 146 148 143 146 153 132 138 162 145 167 172 113 98 93 93 88 82 76 69 60 51 44 39 41 34 26 28 23 19 16 12 10 11 9 5 0 354 347 341 337 332 326 323 320
205 200 213 225 229 223 224 236 197 184 204 213 207 190 135 138 143 140 150 154 145 129 130 135 134 136 139 139 143 138 138 150 165 164 155 149 141 132 131 134 138 139 132 131 134 130 126 125 127 134 130 121 129 140 143 142 138 127 118 129 133 109 103 129 101 92 86 84 80 77 71 66 60 52 48 45 47 43 38 35 32 31 31 29 29 30 27 19 14 8 0 354 348 341 333 327 325
206 206 209 213 228 224 222 236 201 179 194 210 214 177 137 146 143 142 154 153 142 129 130 134 138 142 141 140 138 135 139 146 159 159 154 150 141 136 135 135 140 141 136 137 134 123 120 120 118 124 125 123 134 138 136 136 113 116 137 116 95 106 148 122 90 87 83 75 73 71 66 62 58 51 47 45 46 44 40 35 32 31 34 36 33 30 26 20 20 14 7 7 3 354 349 345 343
211 211 210 211 226 225 220 234 202 175 185 209 216 167 137 150 139 144 156 146 144 142 140 139 141 145 143 137 128 127 130 129 136 141 143 137 129 131 132 133 138 137 135 136 130 124 122 123 122 124 124 123 129 134 140 133 99 107 122 107 119 184 175 102 82 79 77 72 69 68 62 57 56 49 42 39 38 40 38 32 27 24 25 30 28 25 21 16 18 14 5 6 7 360 355 356 356
222 215 215 210 221 229 221 228 199 170 180 212 198 138 121 142 133 142 153 142 150 152 143 138 140 148 145 134 127 125 125 128 134 135 137 132 125 131 132 133 136 133 132 129 126 127 127 128 128 124 124 123 124 130 136 124 112 113 107 101 160 194 124 89 83 79 76 75 71 67 60 54 53 49 42 36 33 38 40 35 30 24 22 26 24 22 20 15 15 13 7 3 2 358 352 353 358
232 222 221 211 214 228 222 225 204 165 179 219 170 116 101 130 128 142 160 151 144 140 131 123 133 159 151 140 134 136 138 139 137 134 138 139 136 137 133 132 131 128 127 126 130 132 127 125 124 119 119 121 123 125 120 112 108 107 105 128 170 129 95 93 93 88 82 78 72 67 61 55 52 50 49 43 36 37 39 38 35 27 23 25 21 18 18 15 13 10 8 5 358 354 349 350 356
235 229 223 213 207 220 225 219 194 153 169 180 121 109 107 135 140 151 169 156 130 130 123 112 135 220 173 148 144 150 151 147 142 138 138 140 139 135 130 128 125 124 126 129 137 135 125 121 120 119 116 114 115 114 111 105 99 99 110 142 148 117 103 102 96 88 83 79 71 63 61 60 56 52 48 45 40 34 30 32 35 28 21 18 17 16 13 11 10 7 9 10 4 358 351 348 352
230 234 229 218 205 218 231 198 160 155 173 132 106 108 123 148 171 171 174 168 141 142 142 137 155 190 207 162 155 156 154 148 145 141 140 140 137 132 128 126 126 126 127 131 134 130 123 117 114 112 108 105 104 105 107 105 104 113 135 155 135 115 106 100 93 84 80 80 74 65 61 58 55 52 45 39 36 31 25 21 24 26 20 16 18 20 15 12 13 10 11 11 8 6 355 346 349
224 229 230 232 211 216 228 193 155 179 195 149 127 138 157 164 186 181 176 179 162 150 153 168 168 147 188 196 162 154 151 148 146 143 142 139 134 132 128 126 129 128 126 129 128 123 120 117 111 104 100 97 90 91 98 99 110 127 160 175 141 115 100 90 90 88 85 85 77 68 63 57 50 48 43 37 32 30 29 25 24 28 25 20 23 27 25 20 17 14 14 12 9 10 3 354 353
221 214 222 240 232 222 227 197 161 194 214 179 165 175 159 170 196 186 185 183 165 157 160 174 179 148 171 225 169 151 150 147 146 145 144 140 138 138 133 130 132 128 126 130 127 121 117 114 109 101 97 93 82 79 84 83 90 91 96 120 117 105 100 92 90 92 93 94 84 67 57 53 49 44 42 38 34 34 35 34 33 34 33 28 26 30 29 25 22 19 18 18 15 15 14 9 1
219 201 213 238 239 236 231 192 168 200 217 218 207 194 160 179 213 183 181 186 166 169 179 180 188 152 159 227 182 150 149 148 148 147 146 147 145 142 135 130 129 126 125 128 130 124 115 110 107 102 99 97 83 76 81 80 77 75 82 95 100 100 104 101 94 92 95 102 95 76 60 54 52 49 45 42 40 40 39 38 36 35 37 34 31 34 34 30 28 25 25 24 20 19 22 18 8
218 200 208 230 238 253 251 204 184 204 210 232 217 196 183 184 201 178 173 186 177 178 181 176 179 162 166 207 180 148 148 148 147 146 147 148 145 140 135 131 129 125 124 126 128 123 114 111 110 104 100 100 92 85 90 93 88 88 91 96 101 102 104 102 98 97 98 101 95 83 74 65 59 56 54 50 45 42 40 39 37 37 39 37 34 37 37 34 29 29 31 29 26 26 26 24 16
219 209 202 218 230 255 262 220 196 204 210 235 216 198 209 195 176 172 174 190 185 177 176 166 163 163 179 192 166 148 149 148 146 146 147 145 141 139 136 132 130 126 125 127 124 119 112 109 106 99 97 100 101 100 100 99 90 86 85 94 106 108 106 103 102 107 103 98 94 85 79 73 66 64 60 53 46 42 40 40 40 39 40 41 39 38 39 37 31 33 34 31 32 31 29 29 23
218 223 201 203 220 244 260 228 204 207 205 234 229 205 205 205 172 173 187 194 177 163 167 159 152 167 196 189 156 147 152 151 148 146 145 140 135 136 134 131 130 129 130 127 117 112 108 102 97 96 100 106 109 109 107 103 93 88 83 84 96 107 114 111 111 118 112 105 102 90 82 79 74 71 63 52 46 44 43 43 44 42 42 44 43 39 40 40 35 34 37 35 34 34 29 29 25
218 233 199 187 206 221 241 228 209 224 213 230 237 218 204 210 186 184 196 190 168 163 175 169 164 175 187 178 153 147 156 154 146 142 137 134 132 136 136 132 133 137 137 126 112 109 105 102 104 107 111 115 115 113 110 106 99 96 93 85 85 98 115 120 123 123 116 112 107 94 87 85 79 74 63 53 48 46 47 47 46 45 43 43 44 42 39 42 40 35 36 36 33 32 28 26 25
221 231 198 187 199 201 211 205 202 229 227 226 234 224 213 219 182 179 188 183 171 172 177 168 167 174 171 163 154 150 155 151 142 136 132 135 139 142 142 138 138 142 136 123 115 114 112 113 119 120 118 117 115 112 105 100 96 96 100 97 94 97 105 115 119 113 108 106 103 97 92 87 80 73 63 55 50 49 49 49 48 48 45 43 44 44 40 40 41 36 33 33 31 30 26 24 24
211 214 195 192 197 192 197 200 202 216 221 225 234 230 223 237 178 174 182 178 166 164 167 165 165 167 159 157 159 153 152 149 142 143 140 142 147 145 143 141 141 140 131 126 125 124 122 124 126 125 122 118 114 111 106 101 99 100 105 104 106 106 101 102 105 104 102 99 96 97 95 88 80 73 66 59 56 54 52 51 50 50 48 45 44 45 42 40 42 39 34 34 33 28 26 25 23
204 199 198 206 206 196 196 205 203 210 224 222 221 218 231 242 159 164 174 161 151 155 163 168 168 160 150 154 163 157 152 150 146 148 148 149 150 146 144 142 142 139 134 133 132 127 127 130 132 132 127 123 119 116 115 112 109 107 107 107 112 113 103 97 98 99 101 99 99 100 95 88 82 76 70 65 61 59 56 53 51 51 49 47 45 44 43 40 41 40 35 33 30 26 26 25 24
199 191 200 213 215 196 182 211 202 199 246 225 198 179 220 187 143 161 172 158 158 162 159 166 171 158 148 156 168 160 150 152 150 150 154 155 154 150 148 145 141 139 138 136 134 133 134 136 136 134 130 127 126 123 121 119 116 113 113 113 115 116 112 105 100 99 101 103 106 101 92 88 85 80 73 67 63 61 59 54 51 49 48 47 45 43 42 41 41 40 36 32 28 27 29 27 24
190 188 206 215 217 205 175 199 183 105 249 224 204 192 126 119 153 166 171 164 169 166 153 161 169 157 151 160 171 160 148 151 150 150 158 158 155 152 150 146 141 142 142 139 138 138 137 136 136 135 132 131 130 126 124 124 122 119 118 116 113 113 114 111 107 106 108 110 105 98 93 90 86 80 75 69 64 61 59 56 52 48 47 46 44 42 41 40 39 38 35 30 27 29 30 28 26
197 186 204 212 218 217 192 191 178 192 230 215 211 209 172 166 180 167 169 169 175 166 150 151 158 156 158 166 175 161 146 148 149 149 157 159 155 153 149 146 146 147 145 140 138 136 135 138 138 136 134 134 133 130 128 127 124 121 119 117 115 116 116 115 115 116 115 110 103 97 94 91 85 81 78 72 67 63 59 56 53 49 46 44 42 41 40 39 36 36 35 29 27 29 30 28 28
219 193 196 213 222 211 196 200 191 197 218 225 221 216 194 184 177 174 180 168 161 158 147 148 157 160 164 170 173 161 146 147 149 150 157 158 154 153 149 148 149 148 144 139 136 135 137 141 140 138 137 136 136 134 133 131 126 123 121 120 121 121 120 118 117 116 112 107 101 97 94 91 88 83 79 75 70 65 61 57 54 50 46 42 41 39 37 37 35 33 32 29 27 29 31 29 28
222 201 193 214 232 217 205 203 201 202 207 220 224 212 206 207 176 173 174 151 146 152 150 156 163 163 163 163 164 161 153 150 147 150 157 154 153 153 150 149 149 147 143 141 141 140 140 141 141 141 139 138 139 137 136 133 127 125 124 122 122 121 118 117 114 111 108 105 101 98 94 91 89 84 80 78 73 67 63 59 54 50 46 41 38 36 35 34 32 30 29 27 26 28 30 29 27
210 208 197 205 217 221 213 202 209 220 207 209 230 212 202 229 171 169 165 147 147 155 156 159 164 165 160 154 157 163 159 149 143 149 154 151 150 151 149 148 146 144 144 145 145 141 138 141 142 141 139 139 139 137 136 132 126 125 124 121 119 118 117 115 112 107 104 102 100 98 95 93 90 85 82 78 73 69 64 59 54 49 45 41 36 34 32 30 27 28 27 25 25 26 28 28 28
195 216 210 202 204 210 214 209 210 221 218 212 229 220 191 26 130 164 166 157 153 156 158 160 166 170 160 153 161 164 156 149 145 148 150 147 147 147 145 143 143 144 146 147 145 140 140 144 144 142 141 141 141 138 135 131 126 124 123 121 119 118 116 114 111 107 103 101 99 97 95 94 90 86 83 79 75 71 65 60 55 48 43 40 35 31 29 27 24 23 25 25 24 26 28 28 28